This is the latest recevied weather packets stored in our database for station/object DO1TOB-60. If no packets are shown the sender has not sent any weather packets the latest 1 day(s).
| Time | Temp. | Humidity | Pressure | Rain* | Wind** | Luminosity | Snow |
|---|---|---|---|---|---|---|---|
| 1778000782 | 12.78° C | 93% | 1007.8 hPa | 0 mm | 1.79 m/s, 342° | - | - |
| 1778000722 | 12.78° C | 93% | 1007.8 hPa | 0 mm | 1.79 m/s, 334° | - | - |
| 1778000661 | 12.78° C | 93% | 1007.8 hPa | 0 mm | 1.79 m/s, 331° | - | - |
| 1778000602 | 12.78° C | 93% | 1007.8 hPa | 0 mm | 1.34 m/s, 315° | - | - |
| 1778000421 | 12.78° C | 93% | 1007.8 hPa | 0 mm | 0.89 m/s, 328° | - | - |
| 1778000361 | 12.78° C | 93% | 1007.8 hPa | 0 mm | 0.45 m/s, 329° | - | - |
| 1778000303 | 12.78° C | 93% | 1007.8 hPa | 0 mm | 0.89 m/s, 329° | - | - |
| 1778000242 | 12.78° C | 93% | 1007.8 hPa | 0 mm | 1.79 m/s, 340° | - | - |
| 1778000182 | 12.78° C | 93% | 1007.8 hPa | 0 mm | 1.79 m/s, 321° | - | - |
| 1778000062 | 12.78° C | 93% | 1007.7 hPa | 0 mm | 0.45 m/s, 336° | - | - |
| 1777999941 | 12.78° C | 93% | 1007.8 hPa | 0 mm | 0.89 m/s, 339° | - | - |
| 1777999881 | 12.78° C | 93% | 1007.8 hPa | 0 mm | 1.34 m/s, 340° | - | - |
| 1777999762 | 12.78° C | 93% | 1007.8 hPa | 0 mm | 1.34 m/s, 341° | - | - |
| 1777999701 | 12.78° C | 93% | 1007.7 hPa | 0 mm | 1.34 m/s, 336° | - | - |
| 1777999642 | 12.78° C | 93% | 1007.7 hPa | 0 mm | 1.34 m/s, 335° | - | - |
| 1777999582 | 12.78° C | 93% | 1007.7 hPa | 0 mm | 2.24 m/s, 336° | - | - |
| 1777999521 | 12.78° C | 93% | 1007.8 hPa | 0 mm | 0.45 m/s, 340° | - | - |
| 1777999462 | 12.78° C | 93% | 1007.8 hPa | 0 mm | 1.34 m/s, 343° | - | - |
| 1777999402 | 12.78° C | 93% | 1007.8 hPa | 0 mm | 1.34 m/s, 347° | - | - |
| 1777999342 | 12.78° C | 93% | 1007.8 hPa | 0 mm | 2.24 m/s, 325° | - | - |
| 1777999282 | 12.78° C | 93% | 1007.8 hPa | 0 mm | 1.34 m/s, 348° | - | - |
| 1777999222 | 12.78° C | 93% | 1007.8 hPa | 0 mm | 1.34 m/s, 348° | - | - |
| 1777999162 | 12.78° C | 93% | 1007.8 hPa | 0 mm | 1.34 m/s, 337° | - | - |
| 1777999101 | 12.78° C | 93% | 1007.8 hPa | 0 mm | 1.34 m/s, 329° | - | - |
| 1777999041 | 12.78° C | 93% | 1007.9 hPa | 0 mm | 1.79 m/s, 331° | - | - |
* Rain latest hour (hover to see other rain measurements)
** Current wind speed in m/s (hover to see current wind gust speed)